RH
26 29 32 34 35 35 36 37 38 39 39 39 39 40 41 42 42 45 48 50 52 53 55 56 58 60 62 62 65 69 72 73 76 77 76 76 75 74 75 76 80 82 79 75 72 69 69 70 70 72 72 71 70 70 71 71 69 67 66 65 63 62 58
27 30 33 35 36 37 37 39 40 40 40 39 40 41 42 42 44 46 49 52 55 57 58 58 60 62 63 64 65 67 71 73 76 80 80 79 77 78 80 81 83 84 83 81 76 71 70 71 72 72 72 72 72 71 71 72 71 70 70 69 65 62 58
29 32 35 36 37 38 39 40 40 40 40 40 40 41 42 43 44 47 50 53 56 58 60 61 63 65 65 66 68 69 71 72 75 79 84 84 82 82 83 83 84 85 87 86 81 75 73 72 71 70 70 73 74 74 74 74 73 75 74 68 62 64 65
31 34 36 37 38 40 40 41 40 40 40 40 41 43 43 44 46 48 51 53 56 58 60 62 64 66 66 67 70 73 74 76 78 80 85 90 89 87 87 86 85 86 87 88 86 82 80 77 74 71 71 73 75 75 77 77 77 78 75 65 60 66 66
32 34 37 38 39 40 40 40 40 40 41 42 43 44 45 46 48 50 52 54 56 59 60 63 65 66 67 69 73 77 77 78 79 80 86 94 95 94 93 91 89 90 91 91 91 90 88 85 79 75 74 74 73 74 75 77 79 81 79 71 64 64 59
32 34 37 38 39 40 40 40 40 42 43 44 46 47 48 50 51 53 55 56 58 60 61 63 65 66 68 71 76 79 79 79 80 81 85 90 92 94 98 98 97 97 97 97 98 96 92 88 84 80 77 75 74 75 74 74 76 78 80 78 71 64 58
33 35 37 38 40 40 40 41 43 44 46 48 49 50 51 53 55 56 58 59 61 63 64 65 67 70 72 74 77 79 80 81 81 83 84 83 83 89 97 101 101 102 102 101 101 100 97 92 87 83 80 78 78 80 79 77 75 75 76 76 72 68 67
33 35 38 40 41 41 43 44 46 48 50 52 53 55 56 57 58 60 61 63 65 66 66 68 70 72 73 74 77 79 80 82 82 83 85 83 83 88 94 99 102 104 104 103 101 100 98 93 88 83 81 80 81 82 80 78 75 74 74 73 72 72 74
34 37 40 42 42 44 46 48 50 51 53 55 55 56 58 59 60 63 64 66 68 69 70 71 73 75 76 77 80 82 83 85 84 85 86 86 88 92 96 101 105 105 104 103 102 100 96 92 89 85 82 81 81 79 77 75 74 74 74 74 73 74 75
37 40 42 44 46 48 49 52 52 52 56 65 71 72 74 76 78 80 81 81 80 80 80 80 80 81 81 82 84 85 86 86 87 90 92 91 92 95 99 103 106 105 102 101 100 98 95 91 88 84 79 78 78 76 74 75 74 73 73 73 75 76 75
40 43 44 46 49 51 53 55 53 54 68 86 94 95 96 98 99 98 98 97 95 94 93 92 92 91 90 89 89 88 88 86 87 94 99 99 98 98 100 102 104 104 103 102 101 99 96 93 90 87 83 80 79 78 77 76 75 75 74 75 77 77 75
43 46 48 50 53 54 57 58 56 64 85 100 100 101 102 101 101 101 101 101 100 100 99 98 100 99 96 95 92 89 89 88 87 94 102 102 101 100 101 101 101 101 100 99 100 100 98 96 93 90 87 86 83 81 80 80 80 80 80 81 81 79 76
46 49 51 53 55 57 60 61 59 70 94 105 101 101 101 100 101 101 100 101 100 100 101 100 101 102 100 98 96 94 95 95 93 96 100 102 101 101 101 101 100 100 101 102 102 102 102 99 96 96 95 93 91 89 88 87 87 88 88 88 86 82 78
50 52 53 55 59 60 64 65 58 65 91 105 102 100 97 97 102 101 99 101 100 99 101 100 100 101 100 100 99 99 100 100 100 101 101 101 102 100 100 100 98 96 96 94 94 97 99 98 97 97 93 87 85 88 92 93 92 91 90 90 89 86 86
53 55 56 58 62 65 68 64 54 64 92 104 101 100 99 98 101 101 99 101 100 100 101 100 100 101 100 101 100 98 99 99 99 100 101 101 102 100 97 93 86 81 76 70 69 71 73 74 75 74 71 65 61 63 69 75 81 85 89 95 95 94 97
56 59 59 61 66 69 66 56 49 65 94 104 100 100 100 100 100 100 100 100 99 99 100 99 100 100 98 101 100 96 96 99 99 99 100 101 101 98 96 87 75 68 65 62 61 59 59 60 60 58 58 55 54 57 62 69 80 90 97 102 100 96 95
59 61 63 64 67 68 63 52 46 61 87 102 102 100 100 101 100 100 101 100 98 98 98 97 99 101 101 104 102 96 97 101 101 101 101 102 101 99 99 92 79 71 67 63 63 66 67 69 68 67 70 72 76 83 89 93 97 98 98 95 89 85 81
64 65 66 66 65 67 67 58 50 59 84 102 102 100 100 101 100 100 101 100 98 98 98 99 99 99 99 99 94 92 98 101 100 101 102 102 101 100 101 97 90 85 78 68 64 64 66 69 73 78 84 85 84 87 92 96 93 85 84 83 77 73 71
71 71 69 67 66 69 73 68 56 56 79 100 103 101 101 100 100 101 101 100 99 97 96 97 95 91 92 92 89 90 95 94 93 99 103 100 99 102 102 97 94 92 88 81 75 73 74 75 74 75 76 75 76 80 83 83 74 65 70 79 77 72 70
76 76 73 69 69 71 73 72 61 53 70 96 104 101 100 101 100 100 100 100 99 99 100 100 97 93 92 95 98 99 98 93 90 95 102 102 101 102 98 93 92 95 95 94 93 94 96 96 92 87 84 81 81 83 81 75 66 58 63 80 90 86 80
81 83 78 73 74 73 69 68 65 58 68 93 105 102 99 101 101 99 100 101 99 100 100 98 97 94 87 85 92 97 96 91 87 88 95 100 101 99 96 96 98 100 100 100 101 101 100 100 98 94 91 86 82 80 76 70 65 57 57 74 94 97 93
86 89 85 79 78 74 65 63 67 68 71 85 101 105 101 100 101 101 100 100 100 100 99 96 95 93 85 83 88 90 84 78 76 78 84 91 96 98 100 101 102 102 101 100 98 94 89 86 82 79 76 73 70 67 64 61 58 54 52 64 82 92 99
92 96 94 85 77 71 64 62 69 75 76 80 91 101 103 100 100 100 100 100 100 100 100 99 99 98 98 97 91 80 71 70 75 82 89 94 98 101 102 101 99 96 92 87 82 78 75 72 69 68 68 66 63 61 60 61 60 59 61 70 78 84 93
97 101 99 89 79 71 65 66 70 75 78 78 78 86 99 104 102 100 101 101 100 101 100 100 101 100 99 92 78 67 70 79 87 96 100 100 100 100 98 95 91 85 79 77 76 75 76 74 71 73 74 72 70 71 72 76 78 77 80 86 86 82 81
99 99 96 92 87 78 70 70 73 74 76 77 72 71 84 98 101 99 99 99 100 101 99 99 102 101 95 86 80 80 87 94 97 97 94 91 90 90 87 84 82 79 78 79 79 79 80 79 77 79 81 80 81 84 85 90 94 92 89 90 91 86 79
98 98 97 95 92 85 76 74 76 76 74 75 73 69 72 81 84 82 82 82 83 83 78 78 84 88 84 82 85 87 86 85 85 84 83 83 83 83 83 83 82 81 81 81 81 81 81 80 78 80 84 85 88 90 91 95 100 100 97 97 99 99 93
97 98 97 94 91 88 83 80 80 81 77 75 76 76 77 79 77 72 69 69 68 67 65 64 66 69 71 76 84 90 90 88 87 86 87 88 88 88 89 88 85 82 81 81 82 82 81 80 80 82 84 85 88 92 94 98 103 106 105 103 102 101 100
91 90 85 83 85 88 90 90 88 85 82 79 80 81 82 82 79 74 73 72 70 71 73 75 77 79 83 89 95 100 103 101 98 97 97 97 96 94 91 87 83 80 79 77 76 76 77 79 84 88 90 92 97 101 102 104 106 107 104 101 101 100 98
78 76 73 78 86 92 97 99 95 89 86 87 90 91 92 94 91 87 86 84 84 88 91 94 97 98 99 101 102 103 104 103 101 101 100 98 95 90 86 81 78 75 72 70 71 73 77 84 92 98 100 101 103 104 105 105 105 104 101 100 100 99 97
86 84 85 90 95 97 99 100 98 95 96 99 100 95 94 96 98 99 99 96 95 98 101 102 103 102 102 102 102 102 102 101 100 98 95 92 88 83 79 75 72 70 69 70 75 80 88 97 103 104 103 103 102 102 104 105 103 101 100 100 99 98 97
99 97 98 100 100 100 100 101 101 100 101 102 96 85 80 83 86 89 96 100 101 102 102 102 101 100 100 100 100 100 99 98 96 94 89 85 82 78 74 72 69 68 69 74 81 88 96 103 106 105 105 105 104 102 101 102 101 100 99 99 99 98 97
102 101 100 100 101 101 100 100 101 101 101 99 94 88 88 92 92 90 93 99 102 101 99 99 100 100 100 100 100 99 98 96 93 89 85 81 79 75 72 71 69 69 73 80 88 95 100 104 106 106 104 103 102 101 100 99 100 100 99 98 98 98 98
95 100 100 98 98 102 104 103 101 101 101 100 98 97 99 101 100 99 99 99 101 101 99 98 99 100 100 100 100 98 96 93 89 85 81 79 76 75 74 73 73 76 82 89 95 101 105 107 108 106 103 101 100 101 100 99 99 99 98 98 98 97 97
81 86 88 86 86 91 98 100 100 101 102 101 101 101 101 100 101 102 101 100 101 102 101 99 100 101 100 99 99 96 93 89 85 82 80 78 78 78 77 76 79 84 88 91 95 100 104 106 107 107 107 104 101 100 100 100 99 98 97 97 97 96 95
87 84 86 87 86 85 87 90 96 101 101 100 100 101 100 101 102 101 101 101 100 101 101 100 100 101 100 98 96 92 88 86 83 81 81 80 80 81 80 81 85 88 89 91 94 98 101 103 106 108 107 104 101 102 102 100 98 97 97 97 97 97 96
96 91 91 92 91 89 88 90 96 102 102 100 101 102 102 102 101 99 99 98 96 96 98 98 98 99 97 95 92 89 87 86 84 83 82 82 83 84 85 87 89 90 91 95 98 100 102 105 106 106 105 104 105 106 104 101 100 99 99 99 98 97 97
Wind_Speed
23 24 24 23 23 24 24 24 24 23 23 24 26 27 28 27 25 24 24 24 25 25 25 26 26 26 25 24 23 23 21 21 20 20 20 20 21 22 22 22 23 21 21 21 17 17 20 20 20 22 20 20 21 20 19 19 19 21 22 23 24 27 28
24 24 24 24 24 24 24 24 24 24 25 26 27 28 28 28 26 25 25 25 25 26 26 27 27 27 27 26 26 26 25 24 23 22 22 22 22 23 22 21 23 22 21 22 20 20 22 21 20 22 22 19 19 19 19 20 21 22 23 24 25 27 29
24 25 24 24 24 24 24 25 25 25 26 27 28 29 29 28 27 27 27 26 26 27 27 28 28 28 28 27 27 27 27 27 27 25 24 24 24 23 22 21 22 23 22 23 22 21 23 22 20 22 22 20 20 20 20 21 22 22 23 26 28 27 28
24 24 24 24 25 25 25 25 25 25 26 27 28 29 29 29 28 28 28 28 28 28 28 29 29 30 29 28 28 28 28 28 28 27 25 23 23 23 23 22 22 23 22 22 21 19 20 22 22 23 22 21 21 21 21 21 21 22 24 28 30 28 28
24 25 25 25 25 25 25 25 25 26 27 27 28 29 30 30 29 30 29 29 29 29 29 30 31 31 30 29 29 29 29 29 30 30 27 22 19 18 19 20 20 21 21 21 21 20 18 20 22 23 21 19 22 23 22 21 20 21 24 28 29 30 31
25 25 26 26 25 25 25 25 25 26 26 27 27 28 29 30 30 30 30 30 30 30 31 32 32 33 31 31 30 30 31 31 30 31 29 26 23 20 17 17 17 18 18 20 20 20 20 20 21 23 21 19 20 22 22 22 21 21 22 24 28 32 33
25 26 26 25 25 25 25 25 25 25 26 26 27 28 29 29 30 31 31 31 31 31 32 33 33 33 33 32 32 32 32 32 31 31 31 32 31 27 23 22 21 19 19 19 18 18 19 20 21 22 22 18 18 19 20 20 22 22 21 23 29 31 30
25 26 25 25 25 25 24 24 25 26 26 26 27 28 29 30 30 31 32 33 33 33 34 34 34 34 34 34 35 34 33 33 32 32 32 33 32 31 30 28 25 22 21 19 17 16 18 20 21 22 21 18 16 18 19 17 19 23 23 25 30 30 27
25 25 25 25 25 25 24 24 25 26 26 26 27 28 29 30 31 33 34 34 35 35 35 35 36 36 36 36 36 35 34 33 32 33 33 33 32 31 31 29 25 22 20 18 16 16 17 19 21 21 20 17 16 17 20 19 20 24 26 25 29 30 28
25 25 26 26 26 25 25 25 26 26 25 25 26 26 28 29 31 32 34 35 35 35 35 36 37 37 37 36 35 35 34 33 33 33 34 33 33 32 31 30 27 25 23 19 15 16 18 19 22 24 23 21 19 20 22 23 22 24 26 25 25 27 27
25 26 26 26 26 25 25 26 26 25 24 23 24 25 26 28 30 30 32 33 34 34 34 34 35 36 36 36 35 34 34 34 33 33 32 32 32 32 32 32 30 30 29 24 18 16 18 20 23 25 25 23 22 22 23 25 25 25 25 24 21 20 22
26 26 26 26 26 26 26 27 26 24 23 23 24 25 27 29 31 31 30 30 31 31 31 31 31 32 33 34 33 33 33 33 33 32 31 30 31 31 32 34 35 35 35 32 25 21 20 22 25 26 25 24 24 24 25 27 26 25 24 23 22 20 21
26 26 26 26 26 27 27 27 27 24 23 23 25 26 27 28 30 31 31 30 29 29 29 29 29 28 28 30 31 30 31 32 32 32 31 31 31 31 32 34 36 37 36 34 30 24 22 24 26 26 24 23 24 24 25 25 25 24 23 23 23 24 26
26 26 25 26 26 27 27 27 27 25 23 24 25 26 27 28 29 30 31 30 29 29 29 29 29 27 26 28 29 29 29 30 30 31 31 32 33 34 35 36 37 38 38 37 34 30 28 27 27 27 27 28 29 29 27 25 25 26 26 24 26 29 29
25 25 25 25 26 27 28 28 28 26 24 24 25 26 27 28 28 29 29 28 27 27 27 27 27 27 27 27 29 29 29 29 30 30 32 33 35 36 37 39 40 40 40 41 40 40 39 38 36 37 38 38 38 38 37 35 35 34 30 27 26 27 26
24 24 25 25 25 27 29 29 28 26 24 24 25 26 25 26 27 28 29 29 28 28 28 28 28 29 29 28 29 31 30 29 29 31 32 34 36 37 38 40 40 39 39 40 40 40 41 40 39 39 39 39 39 40 40 39 36 31 25 22 21 20 20
23 23 24 25 26 27 29 30 28 26 25 24 24 25 25 27 28 28 28 29 29 28 29 30 30 29 29 29 30 31 31 28 28 29 31 34 36 36 37 38 38 37 37 37 37 37 38 39 38 37 37 37 35 32 29 24 19 16 15 16 15 15 19
22 23 24 26 27 27 28 30 30 27 25 24 24 24 25 27 27 27 26 26 26 26 26 28 28 28 28 30 31 31 31 29 30 30 30 32 35 36 38 39 38 37 36 35 34 34 35 35 34 33 32 31 29 27 24 19 15 15 15 16 15 15 19
22 24 25 26 27 27 28 30 30 29 27 25 24 24 24 25 26 27 27 26 27 28 27 28 29 29 29 30 31 31 30 30 31 31 31 32 31 31 34 37 37 37 37 37 35 34 32 32 33 33 32 32 31 29 27 24 23 22 19 17 17 17 16
23 25 26 27 28 28 28 30 30 30 28 26 24 24 24 25 26 28 27 25 23 23 24 25 28 29 28 28 28 29 30 31 31 32 34 35 33 31 34 37 37 35 35 34 32 30 28 28 29 30 31 32 31 29 27 27 27 26 23 20 17 16 16
24 26 27 28 28 29 29 29 29 30 29 26 24 24 24 25 26 26 26 24 22 20 22 25 28 29 29 29 28 28 29 30 30 31 32 32 33 33 34 31 27 24 23 21 21 20 20 21 23 24 25 27 30 30 30 30 31 31 29 24 18 16 16
24 26 28 29 29 29 29 28 28 29 28 25 23 23 23 24 25 25 24 24 24 24 24 26 28 30 30 29 28 28 29 30 30 31 30 28 25 21 16 13 12 13 13 13 14 17 19 22 24 25 27 28 30 31 31 31 32 33 33 29 25 22 20
24 25 27 30 30 29 28 27 26 26 26 24 22 22 22 23 23 23 23 24 26 27 25 24 24 24 24 25 26 28 29 30 29 26 23 20 14 8 7 7 9 11 12 14 17 19 21 24 25 27 28 28 30 30 30 30 30 31 31 29 28 28 27
23 23 25 28 29 29 27 26 25 24 23 21 19 18 20 21 21 22 22 24 25 25 24 23 22 22 23 25 28 29 28 27 23 18 15 14 13 12 13 15 15 15 15 16 18 19 21 23 25 25 26 27 28 28 27 26 27 28 28 28 29 30 31
22 22 24 26 28 29 28 26 25 23 21 18 17 17 18 20 21 23 24 25 26 26 25 25 24 24 25 26 27 26 23 21 19 18 18 19 18 19 20 19 18 18 17 17 18 20 22 23 24 25 26 26 26 26 26 26 26 27 28 27 27 29 31
22 22 23 25 27 28 28 26 25 23 20 18 18 20 21 21 22 24 25 27 29 30 30 29 27 26 26 26 25 23 23 23 24 23 22 21 21 21 22 21 20 19 18 19 21 22 24 26 26 27 28 27 26 26 26 25 24 25 26 24 21 23 26
23 22 23 25 26 26 26 26 25 24 23 22 23 24 23 22 23 24 25 27 28 28 28 28 28 28 28 26 24 22 23 25 25 25 24 23 23 23 22 21 20 19 19 21 23 24 27 29 29 28 28 27 26 26 25 24 21 20 21 19 16 18 21
24 24 24 26 26 24 24 26 26 26 25 25 25 24 24 23 23 24 25 26 26 27 28 28 29 29 28 26 25 24 24 25 25 25 25 25 24 22 21 21 20 20 21 23 24 26 28 28 26 26 25 24 23 23 22 21 19 18 20 18 15 16 18
26 26 26 26 26 24 24 25 27 27 25 24 24 25 26 27 27 27 27 28 27 28 29 28 28 28 27 25 25 25 25 25 25 25 24 24 22 21 21 21 21 22 24 26 26 26 27 25 24 22 20 19 19 20 19 18 17 18 19 17 15 16 17
27 27 26 26 27 27 28 28 28 26 23 22 24 27 28 29 29 28 29 29 29 29 29 27 25 25 25 24 23 24 23 23 23 22 22 21 20 20 20 21 22 23 25 25 24 23 22 21 19 18 17 16 17 18 18 16 16 17 17 15 14 16 16
25 26 26 27 28 28 27 26 24 22 22 23 25 26 27 27 26 25 23 20 18 21 24 24 22 22 23 23 23 23 23 22 21 20 19 19 20 21 21 22 23 23 23 22 21 20 19 18 17 17 17 17 16 17 16 15 15 16 16 15 14 16 17
23 24 24 24 24 23 23 22 21 21 23 24 25 25 25 24 23 22 19 15 12 13 17 19 21 21 21 21 22 22 22 21 20 19 19 19 21 22 22 22 22 21 20 20 19 19 19 18 18 17 17 16 16 16 15 14 14 14 14 14 15 16 16
22 22 22 22 21 21 21 21 21 22 23 23 23 22 21 21 22 21 21 20 19 19 19 19 20 21 20 20 21 22 21 20 20 20 20 20 21 22 22 21 19 18 17 19 19 19 19 18 17 15 15 15 16 16 16 15 14 13 13 14 15 16 15
23 22 22 22 22 21 21 22 21 21 22 21 21 20 20 21 23 23 21 20 20 19 19 19 19 20 20 19 20 20 20 20 20 20 20 20 21 21 20 19 17 17 18 19 20 20 20 19 18 17 17 16 15 15 15 15 14 13 13 14 15 16 16
27 26 24 23 23 23 23 23 22 21 21 20 20 20 20 20 20 18 17 17 16 15 16 16 17 18 19 19 20 20 20 21 21 21 20 20 20 19 18 18 18 18 19 19 20 21 20 20 20 20 18 16 16 15 15 16 16 15 16 16 16 16 16
29 28 26 25 24 23 22 22 21 20 20 20 19 18 17 14 13 13 14 16 16 15 16 17 18 19 19 20 21 21 21 21 20 20 19 19 18 18 18 18 19 19 19 20 20 21 20 19 20 20 18 17 18 17 16 17 17 17 18 18 16 16 16
Wind_Direction
252 252 253 253 254 254 255 256 258 259 259 259 259 257 255 255 256 258 260 261 260 258 255 253 253 253 255 258 260 260 259 258 255 254 252 251 253 252 249 248 249 256 269 273 273 276 284 289 288 285 284 284 287 290 292 293 293 294 295 296 297 300 302
252 252 252 253 253 254 255 256 257 258 258 258 258 256 254 254 254 257 258 258 257 255 253 253 252 253 255 258 261 262 261 260 256 253 252 251 250 251 248 245 248 255 266 274 276 278 283 285 285 287 288 286 285 287 289 290 291 293 293 294 296 298 299
251 250 251 252 254 254 255 257 258 258 259 258 257 255 253 253 254 256 257 256 256 255 253 252 252 254 256 259 261 262 262 262 259 254 251 250 249 250 250 247 248 253 261 271 278 279 281 283 282 284 287 288 288 288 288 289 290 290 291 295 298 296 296
249 250 251 252 253 254 255 257 258 259 260 258 257 255 253 254 255 256 257 257 258 257 254 253 253 255 257 259 261 261 261 260 258 254 250 249 248 248 250 250 249 252 256 266 276 277 276 279 281 282 285 288 289 288 287 288 289 289 291 297 300 297 297
248 250 251 252 253 255 257 259 260 260 260 258 257 255 254 255 256 257 258 258 260 259 257 255 255 257 259 260 260 260 261 259 257 255 251 246 245 244 247 249 249 251 254 260 269 273 275 276 278 280 281 284 289 291 290 290 289 287 289 296 300 300 301
250 251 252 253 255 257 260 261 261 261 260 259 257 256 256 257 258 258 258 260 261 260 259 258 257 258 259 259 259 259 261 260 258 255 251 248 247 246 245 247 249 251 254 258 262 268 272 273 274 278 279 280 284 287 291 295 293 288 286 292 298 300 301
251 252 253 254 256 259 262 262 262 261 261 260 259 258 258 258 258 259 259 261 262 261 261 260 258 259 259 259 260 260 260 259 257 254 253 252 252 250 248 249 251 252 254 257 261 264 267 268 270 273 276 278 281 280 283 288 290 290 288 290 294 295 297
253 253 253 255 258 261 262 262 262 261 261 260 260 259 260 260 260 260 261 262 262 262 261 260 259 259 259 261 262 262 262 260 257 255 253 254 254 252 250 250 250 251 251 254 257 258 262 266 268 270 273 274 273 274 274 274 279 285 288 290 291 291 291
253 252 252 255 258 260 261 261 261 262 262 262 262 262 262 263 263 263 263 262 262 262 261 260 260 260 261 263 265 266 265 262 260 257 254 255 254 250 249 249 247 247 248 250 253 254 258 263 264 266 270 267 261 265 273 276 277 279 281 284 287 287 288
251 250 252 256 258 259 260 262 263 266 265 262 262 263 264 264 263 262 262 261 261 261 261 261 261 262 264 266 266 266 265 263 262 259 255 256 255 251 248 246 244 245 246 246 247 249 251 257 260 263 265 265 264 267 274 276 274 273 278 284 285 286 289
248 250 253 257 258 259 262 265 268 270 266 260 259 261 262 262 261 260 259 258 257 258 260 261 260 261 263 264 263 263 263 261 260 257 251 250 251 250 248 245 244 245 246 245 244 244 245 249 256 261 263 264 268 269 269 270 269 271 276 279 279 282 289
249 251 255 257 259 261 264 268 272 271 264 261 262 263 263 263 264 263 261 260 258 257 258 258 257 257 258 260 260 260 259 258 257 254 249 246 248 249 249 249 247 246 244 243 241 240 241 243 252 259 260 260 263 265 264 265 266 266 268 268 269 274 280
250 253 256 258 261 265 268 271 274 271 265 264 267 267 266 267 267 266 266 264 262 260 259 259 258 255 254 257 259 258 256 254 254 253 249 248 250 250 251 252 252 252 250 248 245 242 239 242 248 255 257 256 258 260 260 262 263 262 261 261 264 268 274
252 254 258 262 265 269 271 273 276 275 269 267 269 270 270 270 269 268 268 267 265 263 262 261 259 255 253 255 257 256 253 251 251 250 249 249 250 252 252 253 254 256 256 256 256 255 254 252 252 255 260 262 262 260 257 256 258 259 260 260 264 269 274
254 257 261 264 267 271 273 275 278 278 272 268 270 272 274 275 274 272 271 269 267 266 264 262 260 257 255 254 256 256 255 254 253 252 252 252 252 253 254 254 255 256 257 258 259 260 261 262 261 263 266 267 267 265 263 262 262 263 265 266 269 272 272
256 260 264 267 270 272 274 277 278 277 272 270 272 274 275 276 275 273 272 270 268 266 265 264 262 261 260 257 257 258 258 256 255 254 252 252 253 254 255 256 257 258 259 260 261 262 264 265 265 266 268 269 269 267 267 266 265 265 266 265 268 270 267
259 263 267 270 271 272 275 278 279 279 275 272 272 274 274 273 273 271 269 268 267 265 264 263 262 261 260 258 257 260 260 257 255 254 251 250 251 253 254 257 262 264 264 264 265 266 267 268 269 270 271 272 270 267 270 270 263 260 264 265 267 271 271
264 266 268 271 272 274 276 278 281 281 277 272 272 273 273 273 273 271 269 268 268 266 264 264 262 261 261 261 262 262 260 257 256 254 251 248 249 249 250 255 262 265 267 269 269 269 270 270 271 272 272 272 270 270 276 280 276 274 272 267 265 269 275
265 267 269 271 273 274 274 277 281 282 278 273 272 273 272 271 270 269 268 268 268 268 266 263 264 264 262 262 264 262 259 259 257 251 247 248 249 246 247 252 256 257 260 263 266 269 270 270 270 270 270 272 273 274 276 278 282 284 275 262 260 266 274
265 268 270 271 273 274 274 275 280 283 281 276 273 273 272 269 268 268 267 266 266 265 262 259 260 262 260 259 261 261 261 264 261 254 250 247 245 244 249 254 254 252 253 255 256 258 260 260 262 264 265 267 270 272 275 280 286 287 279 265 258 258 262
266 268 270 272 272 273 275 276 279 284 284 280 274 273 271 268 267 267 267 267 266 264 262 261 262 263 263 263 263 263 265 266 265 262 258 251 247 251 256 255 248 241 239 241 243 246 251 256 261 264 265 266 268 270 274 279 282 284 281 272 259 255 257
266 267 270 272 272 273 276 279 281 284 287 285 278 273 271 268 266 265 264 263 260 257 257 260 259 259 263 265 264 264 266 266 267 268 267 263 263 263 252 233 223 222 227 238 251 261 268 272 274 275 275 275 275 275 277 278 277 277 277 273 266 262 258
264 265 269 272 274 275 279 283 284 285 290 291 284 275 271 269 266 264 262 260 260 259 259 260 259 259 262 263 263 265 268 269 270 273 273 273 276 264 230 233 254 260 263 270 274 276 276 277 278 278 278 278 280 282 283 282 279 276 274 273 271 268 264
262 263 266 271 275 278 282 286 288 291 293 293 288 279 272 269 267 265 265 265 266 266 266 265 264 263 262 261 264 269 273 272 271 271 271 271 270 266 267 274 279 281 283 283 281 278 278 279 281 280 280 282 285 287 286 283 279 276 274 273 273 273 271
260 260 263 267 272 278 283 287 290 293 294 291 286 281 275 271 270 269 268 269 269 269 270 269 267 265 264 265 269 272 274 272 270 269 270 271 269 270 275 278 281 284 286 283 281 280 280 281 283 283 283 285 287 286 284 280 278 278 278 277 277 276 274
259 260 262 265 269 275 282 287 289 291 292 289 285 283 281 279 275 270 267 265 265 266 268 268 267 266 266 268 271 272 270 269 270 271 271 271 270 272 276 278 282 285 285 282 283 283 283 284 285 284 285 287 286 283 280 279 278 279 280 279 276 274 273
257 257 259 263 268 273 278 283 285 286 289 290 288 287 286 283 277 272 268 266 264 265 266 266 266 266 266 266 266 264 262 263 265 266 267 268 269 272 275 278 281 282 283 284 284 284 285 286 286 285 285 286 285 282 279 278 276 275 276 276 271 268 269
255 256 259 265 269 271 275 277 277 281 288 292 290 289 285 279 273 269 266 264 265 267 268 268 268 267 265 263 259 255 253 254 257 260 263 265 267 270 273 277 280 281 282 284 285 286 286 286 286 286 286 286 283 280 277 276 273 270 272 274 269 264 268
261 264 268 269 268 267 265 266 274 285 292 291 287 283 278 273 270 268 266 266 269 269 266 264 263 262 260 258 254 252 250 251 253 256 258 261 264 267 270 274 277 280 282 284 285 285 285 286 287 286 285 283 279 276 274 273 271 270 272 271 265 261 265
264 270 272 269 269 270 267 268 278 289 289 282 279 278 274 272 270 267 267 269 270 264 258 254 252 252 252 250 248 248 249 250 252 253 256 259 263 267 272 276 279 281 283 283 282 281 280 281 282 282 281 279 276 276 276 273 270 270 270 267 265 266 267
262 267 268 265 269 276 278 280 285 286 279 275 277 278 279 280 279 274 273 276 269 255 248 245 242 242 244 244 244 245 247 249 250 252 256 262 267 271 275 277 277 279 280 279 277 276 275 275 275 276 278 277 275 276 276 274 271 269 266 265 265 267 270
268 271 273 273 276 281 285 287 287 283 280 280 282 284 287 290 288 285 287 291 282 258 247 243 240 239 239 239 238 240 243 245 247 252 258 264 268 271 272 273 274 277 277 274 272 272 272 273 274 274 275 275 274 275 276 273 271 268 265 267 268 266 269
275 276 278 280 283 286 288 289 289 288 287 288 289 290 291 291 288 284 282 280 273 261 250 245 243 241 239 237 236 238 241 244 249 255 260 262 263 265 269 271 274 273 269 267 267 268 270 272 272 271 272 274 273 273 272 271 271 269 267 269 269 268 270
286 285 284 284 286 288 289 291 293 293 291 291 291 291 290 288 285 281 277 274 272 263 251 245 243 242 240 238 238 240 244 249 253 256 257 257 259 261 265 269 269 265 263 264 266 267 268 271 272 272 272 273 272 272 271 270 270 270 270 269 269 270 273
292 293 294 292 292 292 293 294 295 294 291 290 288 287 286 283 280 278 276 275 275 269 258 249 245 245 245 246 247 250 251 253 255 255 254 254 255 257 260 262 262 261 263 264 265 266 268 271 274 273 271 269 271 275 275 273 272 271 270 269 269 271 274
290 295 296 295 292 292 293 295 295 292 289 287 284 284 287 286 284 286 285 280 276 272 266 261 258 257 257 256 256 256 255 254 254 254 253 253 254 254 256 258 259 261 263 263 263 265 266 268 270 271 269 269 272 274 274 273 272 271 270 270 270 272 275